SCP
0 0 0 0 0 0 0 0 0 0 0 0 0 0 0 0 0 0 0 0 0 0 0 0 0 0 0 0 0 0 0 0 0 0 0 0 0 0 0 0 0 0 0
0 0 0 0 0 0 0 0 0 0 0 0 0 0 0 0 0 0 0 0 0 0 0 0 0 0 0 0 0 0 0 0 0 0 0 0 0 0 0 0 0 0 0
0 0 0 0 0 0 0 0 0 0 0 0 0 0 0 0 0 0 0 0 0 0 0 0 0 0 0 0 0 0 0 0 0 0 0 0 0 0 0 0 0 0 0
0 0 0 0 0 0 0 0 0 0 0 0 0 0 0 0 0 0 0 0 0 0 0 0 0 0 0 0 0 0 0 0 0 0 0 0 0 0 0 0 0 0 0
0 0 0 0 0 0 0 0 0 0 0 0 0 0 0 0 0 0 0 0 0 0 0 0 0 0 0 0 0 0 0 0 0 0 0 0 0 0 0 0 0 0 0
0 0 0 0 0 0 0 0 0 0 0 0 0 0 0 0 0 0 0 0 0 0 0 0 0 0 0 0 0 0 0 0 0 0 0 0 0 0 0 0 0 0 0
0 0 0 0 0 0 0 0 0 0 0 0 0 0 0 0 0 0 0 0 0 0 0 0 0 0 0 0 0 0 0 0 0 0 0 0 0 0 0 0 0 0 0
0 0 0 0 0 0 0 0 0 0 0 0 0 0 0 0 0 0 0 0 0 0 0 0 0 0 0 0 0 0 0 0 0 0 0 0 0 0 0 0 0 0 0
0 0 0 0 0 0 0 0 0 0 0 0 0 0 0 0 0 0 0 0 0 0 0 0 0 0 0 0 0 0 0 0 0 0 0 0 0 0 0 0 0 0 0
0 0 0 0 0 0 0 0 0 0 0 0 0 0 0 0 0 0 0 0 0 0 0 0 0 0 0 0 0 0 0 0 0 0 0 0 0 0 0 0 0 0 0
0 0 0 0 0 0 0 0 0 0 0 0 0 0 0 0 0 0 0 0 0 0 0 0 0 0 0 0 0 0 0 0 0 0 0 0 0 0 0 0 0 0 0
0 0 0 0 0 0 0 0 0 0 0 0 0 0 0 0 0 0 0 0 0 0 0 0 0 0 0 0 0 0 0 0 0 0 0 0 0 0 0 0 0 0 0
0 0 0 0 0 0 0 0 0 0 0 0 0 0 0 0 0 0 0 0 0 0 0 0 0 0 0 0 0 0 0 0 0 0 0 0 0 0 0 0 0 0 0
0 0 0 0 0 0 0 0 0 0 0 0 0 0 0 0 0 0 0 0 0 0 0 0 0 0 0 0 0 0 0 0 0 0 0 0 0 0 0 0 0 0 0
0 0 0 0 0 0 0 0 0 0 0 0 0 0 0 0 0 0 0 0 0 0 0 0 0 0 0 0 0 0 0 0 0 0 0 0 0 0 0 0 0 0 0
0 0 0 0 0 0 0 0 0 0 0 0 0 0 0 0 0 0 0 0 0 0 0 0 0 0 0 0 0 0 0 0 0 0 0 0 0 0 0 0 0 0 0
0 0 0 0 0 0 0 0 0 0 0 0 0 0 0 0 0 0 0 0 0 0 0 0 0 0 0 0 0 0 0 0 0 0 0 0 0 0 0 0 0 0 0
0 0 0 0 0 0 0 0 0 0 0 0 0 0 0 0 0 0 0 0 0 0 0 0 0 0 0 0 0 0 0 0 0 0 0 0 0 0 0 0 0 0 0
0 0 0 0 0 0 0 0 0 0 0 0 0 0 0 0 0 0 0 0 0 0 0 0 0 0 0 0 0 0 0 0 0 0 0 0 0 0 0 0 0 0 0
0 0 0 0 0 0 0 0 0 0 0 0 0 0 0 0 0 0 0 0 0 0 0 0 0 0 0 0 0 0 0 0 0 0 0 0 0 0 0 0 0 0 0
0 0 0 0 0 0 0 0 0 0 0 0 0 0 0 0 0 0 0 0 0 0 0 0 0 0 0 0 0 0 0 0 0 0 0 0 0 0 0 0 0 0 0
0 0 0 0 0 0 0 0 0 0 0 0 0 0 0 0 0 0 0 0 0 0 0 0 0 0 0 0 0 0 0 0 0 0 0 0 0 0 0 0 0 0 0
0 0 0 0 0 0 0 0 0 0 0 0 0 0 0 0 0 0 0 0 0 0 0 0 0 0 0 0 0 0 0 0 0 0 0 0 0 0 0 0 0 0 0
0 0 0 0 0 0 0 0 0 0 0 0 0 0 0 0 0 0 0 0 0 0 0 0 0 0 0 0 0 0 0 0 0 0 0 0 0 0 0 0 0 0 0
0 0 0 0 0 0 0 0 0 0 0 0 0 0 0 0 0 0 0 0 0 0 0 0 0 0 0 0 0 0 0 0 0 0 0 0 0 0 0 0 0 0 0
0 0 0 0 0 0 0 0 0 0 0 0 0 0 0 0 0 0 0 0 0 0 0 0 0 0 0 0 0 0 0 0 0 0 0 0 0 0 0 0 0 0 0
Wind_Speed
2 2 4 5 7 8 8 8 8 8 8 8 8 8 8 8 8 7 7 6 6 6 6 6 6 7 7 8 8 9 9 9 9 9 9 9 9 9 8 7 5 8 10
1 3 5 5 7 8 8 8 8 8 7 7 8 8 7 7 7 7 6 6 6 6 6 6 6 7 8 8 8 8 9 9 9 8 6 7 7 7 7 6 5 7 8
2 4 6 6 7 7 7 7 7 7 7 7 7 7 6 6 6 5 6 5 5 6 6 6 6 7 7 8 8 8 8 8 7 5 2 5 7 7 7 7 7 8 7
3 4 6 7 7 7 7 7 7 7 7 6 6 6 5 5 5 4 4 5 5 5 6 6 6 6 7 7 7 7 7 7 5 2 2 3 5 7 6 6 6 6 7
5 5 7 7 6 6 6 6 5 6 6 6 5 5 4 4 4 3 4 4 4 5 5 6 6 6 6 7 7 7 6 6 4 4 2 3 3 6 5 4 5 5 5
6 5 7 7 7 6 5 5 4 4 5 4 4 4 3 3 3 3 3 3 4 5 5 6 6 6 7 7 7 6 5 5 6 3 3 2 3 5 4 4 4 4 5
7 6 6 8 7 7 6 5 4 3 4 3 3 3 3 2 2 2 3 3 3 4 5 6 6 7 7 7 7 6 5 5 5 3 3 3 3 4 4 4 3 4 4
7 7 7 8 7 7 6 5 4 3 2 2 2 2 2 2 2 2 3 3 3 4 5 6 7 7 7 7 7 6 6 6 6 5 4 3 3 4 5 4 4 4 4
8 7 6 5 5 6 6 6 5 4 3 2 2 1 1 1 1 1 1 2 3 4 4 5 6 7 7 7 7 7 6 6 7 4 5 4 4 6 6 6 5 5 5
8 8 7 6 5 4 4 6 5 5 4 3 2 1 0 1 2 2 2 1 2 3 4 4 5 6 7 7 7 7 6 7 8 6 5 4 5 8 8 8 7 7 7
8 8 7 6 5 4 3 3 3 3 3 2 0 1 2 3 3 3 2 1 2 3 4 5 5 6 6 7 7 7 7 7 8 6 5 4 7 9 10 9 9 9 8
8 8 7 7 6 5 3 2 2 1 1 1 1 1 2 2 2 3 2 2 3 4 5 6 6 6 7 6 7 8 7 8 7 6 5 6 10 11 11 11 10 10 10
7 7 8 7 6 5 3 3 2 1 1 2 2 2 2 2 2 2 2 3 4 5 5 5 7 6 7 5 5 7 7 7 5 5 6 8 11 13 13 13 12 12 12
7 7 8 7 6 6 4 3 2 2 2 2 3 4 3 2 2 2 2 3 3 3 4 4 4 6 7 8 8 8 8 6 6 5 5 9 12 14 14 14 14 14 14
6 7 7 7 7 6 5 3 3 3 3 3 3 3 3 3 3 3 3 3 4 4 4 5 5 7 7 8 8 9 9 10 9 8 5 9 12 14 15 16 16 16 15
6 6 6 7 7 6 5 4 3 3 2 3 2 3 4 3 3 3 4 4 4 4 5 5 7 6 6 6 8 9 10 10 10 10 8 8 12 14 16 17 17 17 17
5 5 6 6 6 6 6 5 3 3 3 3 3 4 4 4 4 4 4 4 4 5 5 5 7 6 6 7 9 10 9 10 10 10 10 8 8 12 16 18 18 18 18
4 5 6 5 6 6 6 5 3 3 3 3 3 3 4 5 5 4 4 4 5 4 4 5 5 6 6 7 7 8 8 8 11 11 10 10 8 8 12 16 17 18 18
3 4 5 6 6 6 6 4 4 3 3 3 3 3 4 5 5 4 4 4 5 4 4 5 5 6 6 7 7 8 8 9 9 10 11 11 10 10 9 9 14 15 16
3 3 4 5 6 6 4 4 3 3 3 3 3 4 5 4 5 5 4 5 4 4 4 5 6 6 6 6 7 8 8 9 9 9 10 10 9 11 11 10 9 10 15
2 3 4 5 6 5 4 4 3 3 4 3 3 5 5 5 6 5 4 5 4 4 5 6 6 7 6 5 6 6 7 9 10 8 8 9 9 9 10 10 9 8 7
2 3 4 4 5 5 4 4 3 4 4 4 4 4 5 6 6 5 5 4 4 4 5 6 5 5 5 4 4 5 5 6 6 7 7 7 8 7 8 9 9 9 7
1 3 3 4 4 4 5 3 3 3 3 2 4 4 5 6 5 5 5 5 4 4 4 5 6 6 6 5 5 4 5 5 4 5 7 7 6 6 6 6 7 7 8
2 2 3 3 4 4 4 3 4 3 4 4 4 4 5 5 5 5 6 5 5 4 5 5 5 6 6 5 5 5 7 7 6 5 5 5 5 6 6 5 5 5 6
2 2 2 3 3 3 3 4 4 3 3 4 4 5 5 5 5 6 6 5 5 5 5 5 5 6 5 6 5 5 6 6 7 7 7 5 4 4 4 5 4 4 5
2 2 2 3 3 3 3 3 4 4 5 5 5 5 4 4 4 6 6 5 5 5 5 6 5 6 5 6 5 5 5 5 5 6 8 7 6 5 4 3 3 3 3
Wind_Direction
103 103 101 117 126 128 128 130 130 131 132 132 135 135 134 135 136 135 134 133 128 121 119 118 119 117 114 110 105 102 100 93 89 86 85 88 90 93 93 92 105 97 88
119 131 115 119 126 125 123 123 124 129 132 136 140 141 140 140 141 141 143 143 137 128 123 119 120 120 119 116 110 106 101 97 93 88 93 106 96 94 95 86 58 87 95
107 122 129 121 123 124 122 120 120 123 126 131 138 142 145 145 145 148 150 152 145 137 133 126 121 120 121 119 118 115 111 106 100 99 170 128 112 102 102 103 97 97 98
93 104 109 112 121 124 122 121 124 125 126 128 133 137 144 145 149 154 155 156 152 147 141 136 132 128 132 130 128 125 123 119 116 191 172 113 118 109 110 111 109 105 101
93 88 91 94 104 115 118 118 122 125 125 128 132 135 140 141 149 162 165 156 155 151 150 150 146 147 147 147 143 139 138 136 152 212 129 126 123 118 120 115 115 114 109
88 80 88 83 89 93 101 106 111 119 123 126 130 132 140 148 147 147 148 153 163 164 164 166 164 163 161 162 161 157 156 163 202 179 160 158 140 128 137 131 130 130 129
76 68 82 74 77 80 82 86 93 105 115 123 133 139 143 146 155 152 147 150 167 176 181 181 180 177 176 176 176 175 173 190 223 193 186 177 141 145 164 157 154 153 151
69 64 69 70 64 66 68 66 68 83 102 112 120 130 138 134 132 144 160 168 178 184 188 190 190 192 191 191 190 187 183 206 216 210 204 194 152 189 189 181 180 177 175
64 58 54 58 69 70 64 52 49 49 51 53 63 80 89 115 137 141 156 184 198 199 200 199 198 201 204 202 200 194 192 214 235 213 213 207 175 207 204 198 202 202 193
55 48 41 41 46 52 66 58 46 41 35 29 25 15 348 186 187 182 207 202 219 217 212 210 208 210 211 209 206 198 196 211 231 222 220 197 194 217 215 210 212 215 212
49 40 35 29 27 25 36 48 52 57 37 2 26 23 251 229 220 206 222 250 246 236 229 223 221 219 215 209 208 203 205 229 227 229 226 191 212 221 222 221 220 221 222
41 33 28 23 18 16 17 17 16 18 19 340 332 301 268 264 258 266 197 233 253 245 235 230 229 222 225 223 204 204 226 231 236 230 224 201 223 227 227 228 228 227 228
40 31 24 18 14 13 8 5 1 352 347 336 340 326 298 286 273 261 248 225 234 234 238 227 224 230 234 237 234 225 233 236 235 235 224 204 228 233 234 234 233 232 232
41 32 24 16 14 12 5 3 359 356 349 343 338 332 313 299 285 278 267 264 257 249 249 246 246 244 246 243 241 241 238 237 240 240 231 205 227 237 239 239 237 235 235
40 29 23 16 15 9 5 1 358 349 341 339 332 326 324 304 294 287 275 269 266 267 258 254 253 252 250 251 250 249 248 243 244 243 238 210 225 238 243 244 242 239 237
35 25 19 17 14 9 5 0 355 344 340 330 323 324 320 310 299 291 284 278 275 270 266 260 258 257 256 253 254 253 251 250 248 247 249 229 221 233 242 245 246 244 242
28 19 16 12 8 5 2 357 349 343 337 332 329 327 324 315 305 295 288 285 282 277 272 266 263 259 257 255 253 252 252 252 250 249 246 247 236 226 233 242 245 247 246
22 18 13 7 2 0 356 348 343 340 339 334 330 329 327 322 313 301 290 285 288 283 273 268 263 261 257 257 258 255 252 250 252 252 249 243 243 242 231 232 241 246 248
16 12 9 6 1 355 347 339 337 334 337 334 335 334 331 322 315 302 293 293 293 284 275 271 267 265 263 262 263 262 258 254 253 252 250 249 245 244 246 231 228 239 246
15 9 7 6 1 351 344 337 334 337 341 342 342 343 338 332 323 311 299 299 297 287 280 273 270 266 265 266 266 265 263 260 255 253 253 251 247 244 244 246 238 232 234
14 7 6 2 2 356 350 343 338 341 338 341 346 344 341 336 332 321 312 307 301 290 290 289 280 272 267 268 268 267 260 255 252 250 250 252 250 248 248 247 246 248 236
357 357 354 355 356 355 347 334 317 316 317 329 332 340 343 340 337 327 320 311 308 299 295 294 290 285 280 268 269 278 272 258 245 253 253 253 255 256 253 252 251 250 253
321 342 340 345 344 346 340 328 318 309 302 316 335 338 341 338 337 333 323 313 307 300 296 296 290 282 277 269 258 262 271 269 291 255 250 251 258 263 261 263 262 263 260
284 314 323 331 336 339 335 327 325 322 321 325 325 323 328 335 340 338 330 323 314 304 295 290 285 280 277 273 268 259 264 280 277 279 264 262 268 270 274 274 270 266 265
264 291 310 321 326 332 331 324 314 310 309 311 314 320 329 333 337 340 336 329 323 314 307 298 291 285 277 273 270 268 264 265 262 268 276 276 276 275 276 274 274 274 275
246 264 293 306 315 322 319 316 313 309 307 308 315 323 327 327 329 340 334 328 323 317 313 306 296 291 285 279 275 270 268 265 263 263 269 276 275 273 276 280 278 283 287